Back to catalog

COSMOS 886 DEB

AliveLEO
NORAD 14502·DEBRIS·🇷🇺 Russia

Launched Dec 27, 1976 from Baikonur Cosmodrome

Loading…

Next Passes (next 24 hours)

TLE

FreshSource: Space-Track

Epoch: Sep 14, 2026, 15:04 UTC

1 14502U 76126BP  26257.62827263  .00001187  00000-0  39464-3 0  9998
2 14502  65.7776 316.8087 0717089 359.3547 167.1740 13.49117876170138

Track COSMOS 886 DEB in real time with AllMySat

Download on the App Store